Beverly, MA

3:37 AM EDT on June 29, 2017 (GMT -0400)
Beverly Municipal

Weather History for KBVY - December, 2012

Change the Weather History Date:

Sunday, December 2, 2012

  Actual Average Record
Temperature  
Mean Temperature 42 °F -  
Max Temperature 53 °F 42 °F 57 °F (1985)
Min Temperature 30 °F 27 °F 14 °F (2003)
Degree Days  
Heating Degree Days 24    
Moisture  
Dew Point 35 °F    
Average Humidity 85    
Maximum Humidity 93    
Minimum Humidity 69    
Precipitation  
Precipitation 0.01 in - - ()
Sea Level Pressure  
Sea Level Pressure 30.28 in    
Wind  
Wind Speed 4 mph (WNW)    
Max Wind Speed 16 mph    
Max Gust Speed 22 mph    
Visibility 6 miles    
Events Fog , Rain    
Averages and records for this station are not official NWS values.
T = Trace of Precipitation, MM = Missing Value Source: NWS Daily Summary

Daily Weather History Graph

Daily Weather History Graph

Search for Another Location

Airport or City:

Trip Planner

Search our weather history database for the weather conditions in past years. The results will help you decide how hot, cold, wet, or windy it might be!

Date:

Astronomy

Dec. 02, 2012 Rise Set
Actual Time 6:55 AM EST 4:11 PM EST
Civil Twilight 6:23 AM EST 4:42 PM EST
Nautical Twilight 5:48 AM EST 5:17 PM EST
Astronomical Twilight 5:14 AM EST 5:51 PM EST
Moon 7:57 PM EST (12/2) 9:41 AM EST (12/2)
Length of Visible Light 10h 18m
Length of Day
9h 15m
Waning Gibbous, 86% of the Moon is Illuminated
Dec 2
Waning Gibbous
Dec 6
Last Quarter
Dec 13
New
Dec 20
First Quarter
Dec 28
Full

Hourly Weather History & Observations

Time (EST) Temp. Windchill Dew Point Humidity Pressure Visibility Wind Dir Wind Speed Gust Speed Precip Events Conditions
12:03 AM 30.2 °F 26.7 °F 26.6 °F 86% 30.50 in 8.0 mi NNW 3.5 mph - N/A   Overcast
12:53 AM 30.0 °F 23.2 °F 27.0 °F 88% 30.48 in 7.0 mi NNW 6.9 mph - N/A   Overcast
1:53 AM 30.0 °F 25.2 °F 27.0 °F 88% 30.46 in 8.0 mi North 4.6 mph - N/A   Overcast
2:13 AM 30.2 °F 24.3 °F 26.6 °F 86% 30.47 in 7.0 mi NNW 5.8 mph - N/A   Overcast
2:53 AM 30.0 °F 25.2 °F 27.0 °F 88% 30.46 in 7.0 mi NNW 4.6 mph - N/A   Overcast
3:13 AM 30.2 °F 23.4 °F 26.6 °F 86% 30.46 in 7.0 mi NNW 6.9 mph - 0.00 in   Overcast
3:22 AM 30.2 °F 25.4 °F 26.6 °F 86% 30.46 in 7.0 mi NNW 4.6 mph - 0.00 in   Overcast
3:44 AM 30.2 °F 25.4 °F 26.6 °F 86% 30.45 in 7.0 mi NNW 4.6 mph - 0.00 in   Overcast
3:53 AM 30.9 °F 26.2 °F 27.0 °F 85% 30.44 in 7.0 mi North 4.6 mph - 0.00 in   Overcast
4:37 AM 30.2 °F 24.3 °F 26.6 °F 86% 30.42 in 7.0 mi NNW 5.8 mph - N/A   Overcast
4:53 AM 30.9 °F 26.2 °F 27.0 °F 85% 30.41 in 8.0 mi North 4.6 mph - N/A   Overcast
5:53 AM 30.9 °F 25.2 °F 28.0 °F 89% 30.40 in 7.0 mi North 5.8 mph - N/A   Overcast
6:53 AM 32.0 °F - 28.0 °F 85% 30.38 in 6.0 mi Calm Calm - N/A   Overcast
7:53 AM 32.0 °F - 28.9 °F 88% 30.38 in 4.0 mi Calm Calm - N/A   Overcast
8:53 AM 33.1 °F - 30.0 °F 89% 30.35 in 4.0 mi Calm Calm - N/A   Overcast
9:53 AM 35.1 °F - 32.0 °F 89% 30.33 in 3.0 mi Calm Calm - N/A   Overcast
10:11 AM 35.6 °F - 33.8 °F 93% 30.32 in 2.5 mi Calm Calm - N/A   Overcast
10:32 AM 37.4 °F - 33.8 °F 87% 30.31 in 2.0 mi Calm Calm - N/A   Overcast
10:49 AM 37.4 °F - 35.6 °F 93% 30.30 in 1.5 mi Calm Calm - N/A   Overcast
10:53 AM 39.0 °F - 35.1 °F 86% 30.29 in 1.5 mi Calm Calm - N/A   Overcast
11:17 AM 39.2 °F - 37.4 °F 93% 30.28 in 0.5 mi Calm Calm - N/A Fog Fog
11:32 AM 39.2 °F - 37.4 °F 93% 30.27 in 1.8 mi Calm Calm - N/A   Overcast
11:53 AM 42.1 °F 40.2 °F 39.0 °F 89% 30.26 in 1.2 mi SW 3.5 mph - N/A   Overcast
12:21 PM 42.8 °F 40.1 °F 39.2 °F 87% 30.25 in 2.0 mi WSW 4.6 mph - N/A   Overcast
12:53 PM 44.1 °F 41.5 °F 39.9 °F 85% 30.23 in 2.5 mi SW 4.6 mph - N/A   Overcast
1:04 PM 44.6 °F 43.1 °F 39.2 °F 81% 30.22 in 3.0 mi WSW 3.5 mph - N/A   Overcast
1:53 PM 46.0 °F - 41.0 °F 83% 30.19 in 4.0 mi Calm Calm - N/A   Haze
2:53 PM 46.9 °F - 41.0 °F 80% 30.15 in 4.0 mi Calm Calm - N/A   Haze
3:53 PM 48.0 °F - 42.1 °F 80% 30.13 in 5.0 mi Calm Calm - N/A   Haze
4:53 PM 46.9 °F - 42.1 °F 83% 30.10 in 6.0 mi Calm Calm - N/A   Haze
5:53 PM 46.9 °F - 42.1 °F 83% 30.09 in 5.0 mi SSW 3.5 mph - N/A   Haze
6:53 PM 50.0 °F - 45.0 °F 83% 30.08 in 8.0 mi SSW 6.9 mph - N/A   Clear
7:53 PM 53.1 °F - 43.0 °F 69% 30.06 in 10.0 mi SW 11.5 mph 20.7 mph N/A   Scattered Clouds
8:53 PM 53.1 °F - 43.0 °F 69% 30.03 in 10.0 mi SSW 16.1 mph 20.7 mph 0.01 in Rain Light Rain
9:53 PM 52.0 °F - 43.0 °F 71% 30.04 in 10.0 mi SW 12.7 mph 21.9 mph 0.00 in   Overcast
10:53 PM 52.0 °F - 45.0 °F 77% 30.03 in 10.0 mi SW 13.8 mph - 0.00 in Rain Light Rain
11:53 PM 52.0 °F - 45.0 °F 77% 30.01 in 10.0 mi SW 12.7 mph 20.7 mph 0.00 in   Overcast